Weather in Arakhley

Russia / Zabaykalsky Krai     52°09′45″N   112°50′11″E
temp.,
°C
wind,
m/s
gust,
m/s
humid.,
%
clouds,
%
prec.,
mm/h
press.,
hPa
HPBL,
m
19 may, wed
wed1900:00+3ssw0039100 0.0 100410
03:00+4s2340100 0.0 100289
06:00+3wsw3686100 0.1 1002550
09:00+4wsw2485100 0.7 1002568
12:00+7w466178 0.1 10011299
15:00+13wnw582313 0.2 9982749
18:00+13nw692145 0.0 9982743
21:00+7nnw37335 0.0 1001194
20 may, thu
thu2000:00+3nw11475 0.0 100410
03:00+2s1149100 0.0 100510
06:00+3ese1146100 0.0 100314
09:00+8se4931100 0.0 999566
12:00+8sse4765100 0.3 998691
15:00+10nne3372100 0.9 997305
18:00+8n478186 1.0 998508
21:00+5nne3791100 1.1 1002373
21 may, fri
fri2100:00+4nne3894100 0.0 1003311
03:00+4ene41091100 0.0 1001528
06:00+3e41195100 0.9 1000640
09:00+3ene51193100 0.9 999651
12:00+3ene51094100 0.4 999629
15:00+4e4795100 0.4 1000626
18:00+3ne2496100 0.1 1001504
21:00+2nne2496100 0.1 1003364
22 may, sat
sat2200:00+2nnw2495100 0.0 1005378
03:00+1nw3594100 0.0 1004397
06:000nw4992100 0.0 1004538
09:00+1nw577899 0.0 1005740
12:00+5nnw5753100 0.1 10031491
15:00+7nw5745100 0.1 10021893
18:00+7wnw5656100 0.3 10021362
21:00+3wnw4790100 0.9 1004372
23 may, sun
sun2300:00+1nw499697 0.3 1006578
03:00+1nw51191100 1.3 1007506
06:000wnw4128799 0.0 1008461
09:00+4nw61062100 0.0 10081360
12:00+6nnw71051100 0.4 10081977
15:00+7nnw61050100 1.3 10082082
18:00+8nnw61043100 0.8 10092247
21:00+5nw4105499 0.9 1010502